Meteo Giornale » Osservazioni meteo Svezia » Satenas
ore: 07:50 - Osservazioni Meteo Satenas
Lat. 58° 26' N Lon. 12° 42' E Alt. 54 metri s.l.m.
13 °C
Nebbia
Temp. 24 Ore
12 °C
20 °C
Nord
3.7 Km/h
Dew point 13 °C
Umidità 100 %
Visibilità 0.5 Km
Il sole sorge alle ore 06:08
Il sole tramonta alle ore 20:10
| Data e Ora | Cielo e Fenomeni | T °C | DP °C | Um. % | Pres. hPa | Vis. km | Vento km/h | |
|---|---|---|---|---|---|---|---|---|
| Oggi h: 07:50 | Nebbia | 13 | 13 | 100 | 1007 | 0.5 | N 3.7 | |
| Oggi h: 07:20 | Nebbia | 13 | 13 | 100 | 1007 | 0.5 | N 3.7 | |
| Oggi h: 06:50 | Nebbia | 12 | 12 | 100 | 1007 | 0.2 | N 5.5 | |
| Oggi h: 06:20 | Nebbia | 13 | 13 | 100 | 1007 | 0.2 | N 0 | |
| Oggi h: 05:50 | Foschia | 14 | 13 | 93 | 1007 | 0.35 | N 0 | |
| Oggi h: 05:20 | Nuvoloso | 13 | 13 | 100 | 1007 | 10 | N 1.8 | |
| Oggi h: 04:50 | Molto Nuvoloso | 14 | 13 | 93 | 1007 | 10 | N 5.5 | |
| Oggi h: 04:20 | Coperto | 14 | 14 | 100 | 1007 | 10 | N 1.8 | |
| Oggi h: 03:50 | Coperto | 15 | 14 | 93 | 1007 | 10 | N 3.7 | |
| Oggi h: 03:20 | Coperto | 15 | 14 | 93 | 1006 | 10 | N 3.7 | |
| Oggi h: 02:50 | Coperto | 15 | 14 | 93 | 1006 | 10 | N 1.8 | |
| Oggi h: 02:20 | Coperto | 14 | 14 | 100 | 1006 | 10 | N 1.8 | |
| Oggi h: 01:50 | Coperto | 15 | 14 | 93 | 1006 | 10 | N 3.7 | |
| Oggi h: 01:20 | Coperto | 14 | 14 | 100 | 1006 | 10 | N 1.8 | |
| Oggi h: 00:50 | Coperto | 14 | 14 | 100 | 1006 | 10 | N 3.7 | |
| Oggi h: 00:20 | Coperto | 14 | 13 | 93 | 1006 | 10 | N 0 | |
| Ieri h: 23:50 | Molto Nuvoloso | 14 | 13 | 93 | 1006 | 10 | N 3.7 | |
| Ieri h: 23:20 | Coperto | 14 | 13 | 93 | 1006 | 10 | N 1.8 | |
| Ieri h: 22:50 | Coperto | 15 | 14 | 93 | 1006 | 10 | N 3.7 | |
| Ieri h: 22:20 | Coperto | 15 | 13 | 87 | 1006 | 10 | N 3.7 | |
| Ieri h: 21:50 | Coperto | 15 | 14 | 93 | 1006 | 10 | N 0 | |
| Ieri h: 21:20 | Coperto | 15 | 14 | 93 | 1006 | 10 | N 1.8 | |
| Ieri h: 20:50 | Coperto | 15 | 14 | 93 | 1006 | 10 | N 3.7 | |
| Ieri h: 20:20 | Coperto | 16 | 14 | 87 | 1006 | 10 | S 9.3 | |
| Ieri h: 19:50 | Pioggia | 16 | 14 | 87 | 1006 | 10 | S 9.3 | |
| Ieri h: 19:20 | Molto Nuvoloso | 17 | 14 | 82 | 1006 | 10 | S/SO 13 | |
| Ieri h: 18:50 | Nuvoloso | 18 | 13 | 72 | 1005 | 10 | S/SO 18.5 | |
| Ieri h: 18:20 | Sereno | 19 | 13 | 68 | 1005 | 10 | S/SO 14.8 | |
| Ieri h: 17:50 | Nuvoloso | 19 | 13 | 68 | 1005 | 10 | S/SO 14.8 | |
| Ieri h: 17:20 | Molto Nuvoloso | 20 | 13 | 64 | 1005 | 10 | O 9.3 | |
| Ieri h: 16:50 | Nuvoloso | 20 | 13 | 64 | 1005 | 10 | SO 13 | |
| Ieri h: 16:20 | Nuvoloso | 19 | 13 | 68 | 1005 | 10 | O/SO 13 | |
| Ieri h: 15:50 | Molto Nuvoloso | 19 | 13 | 68 | 1006 | 10 | O/SO 11.1 | |
| Ieri h: 15:20 | Molto Nuvoloso | 19 | 13 | 68 | 1005 | 10 | SO 18.5 | |
| Ieri h: 14:50 | Molto Nuvoloso | 19 | 13 | 68 | 1005 | 10 | SO 20.3 | |
| Ieri h: 14:20 | Nuvoloso | 19 | 12 | 63 | 1005 | 10 | O/SO 22.2 | |
| Ieri h: 13:50 | Nuvoloso | 19 | 13 | 68 | 1005 | 10 | SO 22.2 | |
| Ieri h: 13:20 | Nuvoloso | 19 | 13 | 68 | 1005 | 10 | SO 20.3 | |
| Ieri h: 12:50 | Nuvoloso | 18 | 13 | 72 | 1005 | 10 | O/SO 20.3 | |
| Ieri h: 12:20 | Molto Nuvoloso | 18 | 12 | 67 | 1006 | 10 | SO 22.2 | |
| Ieri h: 11:20 | Molto Nuvoloso | 17 | 12 | 72 | 1005 | 10 | SO 29.6 | |
| Ieri h: 10:20 | Molto Nuvoloso | 16 | 13 | 82 | 1005 | 10 | SO 24 | |
| Ieri h: 09:50 | Molto Nuvoloso | 16 | 13 | 82 | 1005 | 10 | SO 22.2 | |
| Ieri h: 09:20 | Coperto | 16 | 13 | 82 | 1005 | 10 | S/SO 18.5 | |
| Ieri h: 08:50 | Molto Nuvoloso | 15 | 13 | 87 | 1005 | 10 | S/SO 20.3 | |



